AEE8MC LGAV-EDDM

Flight info

Callsign AEE8MC
Flight time 2h 16m
Altitude 38000
Route KOR UL613 XANIS DCT DIMIS DCT PETAK DCT GLOMY DCT ELTIB DCT GORPA DCT BERTA DCT RASTA DCT REDBU Q112 NAPSA NAPSA4A
Aircraft A320/M-SDE3FGHIRWY/LB1

Departure

Time 2026-05-04 15:03
Airport Athens Eleftherios Venizelos International Airport (LGAV)

Arrival

Time 2026-05-04 17:20
Airport Munich Airport (EDDM)
Time Latitude Longitude Altitude Speed Heading
2026-05-04 14:29 37.93794 23.95019 301 ft 0 kts 306°
2026-05-04 14:54 37.93784 23.95037 301 ft 4 kts 306°
2026-05-04 14:54 37.93771 23.95058 300 ft 4 kts 303°
2026-05-04 14:55 37.93760 23.95088 300 ft 4 kts 277°
2026-05-04 14:55 37.93764 23.95116 300 ft 4 kts 220°
2026-05-04 14:55 37.93781 23.95132 302 ft 1 kts 217°
2026-05-04 14:58 37.93770 23.95123 300 ft 3 kts 217°
2026-05-04 14:58 37.93735 23.95104 300 ft 7 kts 179°
2026-05-04 14:58 37.93690 23.95155 303 ft 11 kts 126°
2026-05-04 14:59 37.93640 23.95235 298 ft 10 kts 140°
2026-05-04 14:59 37.93568 23.95204 297 ft 13 kts 218°
2026-05-04 14:59 37.93397 23.95041 299 ft 18 kts 217°
2026-05-04 15:00 37.93290 23.94940 300 ft 20 kts 217°
2026-05-04 15:00 37.93171 23.94827 300 ft 23 kts 217°
2026-05-04 15:00 37.93039 23.94702 300 ft 25 kts 217°
2026-05-04 15:01 37.92749 23.94427 302 ft 25 kts 216°
2026-05-04 15:01 37.92619 23.94303 304 ft 22 kts 217°
2026-05-04 15:01 37.92502 23.94193 304 ft 15 kts 218°
2026-05-04 15:01 37.92420 23.94177 305 ft 13 kts 131°
2026-05-04 15:02 37.92412 23.94284 307 ft 12 kts 87°
2026-05-04 15:02 37.92424 23.94391 309 ft 13 kts 60°
2026-05-04 15:02 37.92504 23.94471 308 ft 21 kts 37°
2026-05-04 15:02 37.92831 23.94782 298 ft 94 kts 37°
2026-05-04 15:03 37.93501 23.95419 284 ft 147 kts 37°
2026-05-04 15:03 37.94423 23.96274 620 ft 165 kts 39°
2026-05-04 15:03 37.95344 23.97134 1353 ft 164 kts 37°
2026-05-04 15:03 37.96241 23.98006 2034 ft 170 kts 33°
2026-05-04 15:04 37.97238 23.98972 2332 ft 191 kts 33°
2026-05-04 15:04 37.98361 24.00045 2650 ft 213 kts 34°
2026-05-04 15:04 37.99607 24.01234 3159 ft 232 kts 33°
2026-05-04 15:04 38.00913 24.02489 3979 ft 239 kts 34°
2026-05-04 15:05 38.02251 24.03786 4861 ft 245 kts 33°
2026-05-04 15:05 38.03615 24.05108 5769 ft 248 kts 33°
2026-05-04 15:05 38.04993 24.06440 6732 ft 250 kts 32°
2026-05-04 15:05 38.06387 24.07784 7638 ft 253 kts 32°
2026-05-04 15:06 38.07938 24.08925 8266 ft 263 kts 13°
2026-05-04 15:06 38.09753 24.09107 9036 ft 265 kts 349°
2026-05-04 15:06 38.11450 24.08213 9888 ft 269 kts 323°
2026-05-04 15:07 38.13098 24.03871 10978 ft 307 kts 275°
2026-05-04 15:07 38.13121 24.01053 11197 ft 331 kts 272°
2026-05-04 15:07 38.13092 23.98056 11617 ft 345 kts 272°
2026-05-04 15:07 38.13044 23.94981 12254 ft 351 kts 272°
2026-05-04 15:08 38.12999 23.91858 12901 ft 357 kts 272°
2026-05-04 15:08 38.12963 23.88722 13554 ft 363 kts 272°
2026-05-04 15:08 38.12936 23.85456 14182 ft 368 kts 272°
2026-05-04 15:08 38.12918 23.82233 14792 ft 372 kts 272°
2026-05-04 15:09 38.12905 23.78934 15413 ft 375 kts 272°
2026-05-04 15:09 38.12893 23.75610 16026 ft 378 kts 272°
2026-05-04 15:09 38.12878 23.72259 16603 ft 382 kts 272°
2026-05-04 15:10 38.12836 23.65440 17775 ft 390 kts 272°
2026-05-04 15:10 38.12813 23.61976 18320 ft 395 kts 271°
2026-05-04 15:10 38.12771 23.56097 19255 ft 400 kts 271°
2026-05-04 15:11 38.12743 23.52564 19856 ft 402 kts 271°
2026-05-04 15:11 38.12716 23.49050 20401 ft 405 kts 271°
2026-05-04 15:11 38.12690 23.45462 20938 ft 408 kts 272°
2026-05-04 15:11 38.12661 23.41841 21480 ft 411 kts 271°
2026-05-04 15:12 38.12632 23.38224 22145 ft 409 kts 271°
2026-05-04 15:12 38.12599 23.34609 22728 ft 410 kts 272°
2026-05-04 15:12 38.12565 23.30988 23273 ft 412 kts 272°
2026-05-04 15:12 38.12528 23.27340 23792 ft 413 kts 272°
2026-05-04 15:13 38.12493 23.23681 24218 ft 416 kts 272°
2026-05-04 15:13 38.12458 23.20001 24678 ft 417 kts 272°
2026-05-04 15:13 38.12423 23.16318 25129 ft 418 kts 273°
2026-05-04 15:13 38.12385 23.12617 25570 ft 419 kts 273°
2026-05-04 15:14 38.12341 23.08921 26051 ft 417 kts 275°
2026-05-04 15:14 38.12294 23.05254 26656 ft 414 kts 276°
2026-05-04 15:14 38.12248 23.01603 27150 ft 414 kts 276°
2026-05-04 15:14 38.12204 22.97939 27593 ft 415 kts 276°
2026-05-04 15:15 38.12163 22.94266 28015 ft 417 kts 276°
2026-05-04 15:15 38.12120 22.90576 28426 ft 418 kts 276°
2026-05-04 15:15 38.12073 22.86876 28824 ft 420 kts 276°
2026-05-04 15:16 38.12041 22.79481 29585 ft 419 kts 282°
2026-05-04 15:16 38.12677 22.75943 29935 ft 407 kts 297°
2026-05-04 15:16 38.15904 22.70356 30928 ft 389 kts 322°
2026-05-04 15:17 38.17974 22.68153 31390 ft 387 kts 322°
2026-05-04 15:17 38.22105 22.63775 32308 ft 385 kts 322°
2026-05-04 15:17 38.24163 22.61585 32728 ft 386 kts 322°
2026-05-04 15:18 38.26221 22.59390 33110 ft 387 kts 322°
2026-05-04 15:18 38.28282 22.57190 33541 ft 386 kts 322°
2026-05-04 15:18 38.30344 22.54991 34001 ft 386 kts 322°
2026-05-04 15:19 38.34459 22.50601 34778 ft 386 kts 321°
2026-05-04 15:19 38.36512 22.48400 35117 ft 386 kts 321°
2026-05-04 15:19 38.40643 22.43962 35702 ft 389 kts 321°
2026-05-04 15:20 38.42714 22.41736 35968 ft 390 kts 321°
2026-05-04 15:20 38.44793 22.39507 36249 ft 391 kts 321°
2026-05-04 15:20 38.46880 22.37270 36530 ft 392 kts 321°
2026-05-04 15:20 38.48973 22.35026 36812 ft 393 kts 321°
2026-05-04 15:21 38.51063 22.32780 37078 ft 393 kts 321°
2026-05-04 15:21 38.53161 22.30522 37306 ft 395 kts 321°
2026-05-04 15:21 38.57343 22.26013 37784 ft 397 kts 321°
2026-05-04 15:22 38.59453 22.23731 38027 ft 397 kts 321°
2026-05-04 15:22 38.65830 22.16823 38114 ft 401 kts 321°
2026-05-04 15:23 38.70097 22.12194 38103 ft 402 kts 320°
2026-05-04 15:23 38.74359 22.07582 38112 ft 400 kts 321°
2026-05-04 15:24 38.82845 21.98365 38114 ft 402 kts 321°
2026-05-04 15:25 38.87105 21.93715 38116 ft 402 kts 320°
2026-05-04 15:26 38.93494 21.86738 38109 ft 402 kts 320°
2026-05-04 15:26 38.99892 21.79731 38103 ft 403 kts 320°
2026-05-04 15:27 39.06295 21.72707 38104 ft 404 kts 320°
2026-05-04 15:28 39.12697 21.65658 38102 ft 405 kts 320°
2026-05-04 15:29 39.19119 21.58572 38115 ft 405 kts 320°
2026-05-04 15:30 39.34068 21.42009 38131 ft 405 kts 320°
2026-05-04 15:31 39.40474 21.34875 38135 ft 405 kts 320°
2026-05-04 15:32 39.51133 21.22975 38129 ft 404 kts 320°
2026-05-04 15:34 39.61750 21.11080 38095 ft 404 kts 320°
2026-05-04 15:34 39.68136 21.03884 38103 ft 406 kts 320°
2026-05-04 15:35 39.74519 20.96683 38110 ft 406 kts 320°
2026-05-04 15:36 39.80927 20.89451 38113 ft 407 kts 320°
2026-05-04 15:36 39.85199 20.84615 38113 ft 407 kts 320°
2026-05-04 15:37 39.89473 20.79762 38089 ft 407 kts 320°
2026-05-04 15:37 39.93747 20.74895 38094 ft 408 kts 320°
2026-05-04 15:38 39.98019 20.70029 38095 ft 408 kts 320°
2026-05-04 15:38 40.02267 20.65177 38096 ft 408 kts 320°
2026-05-04 15:39 40.06558 20.60315 38099 ft 408 kts 323°
2026-05-04 15:40 40.13871 20.54651 38105 ft 407 kts 331°
2026-05-04 15:40 40.18819 20.51027 38105 ft 408 kts 331°
2026-05-04 15:41 40.23765 20.47384 38100 ft 408 kts 331°
2026-05-04 15:41 40.28686 20.43763 38090 ft 408 kts 331°
2026-05-04 15:42 40.33643 20.40119 38097 ft 408 kts 331°
2026-05-04 15:42 40.38596 20.36463 38108 ft 408 kts 331°
2026-05-04 15:43 40.43553 20.32807 38106 ft 409 kts 331°
2026-05-04 15:43 40.48513 20.29137 38110 ft 409 kts 331°
2026-05-04 15:44 40.53470 20.25458 38111 ft 409 kts 330°
2026-05-04 15:44 40.58398 20.21797 38111 ft 409 kts 330°
2026-05-04 15:45 40.63370 20.18100 38113 ft 410 kts 331°
2026-05-04 15:45 40.68350 20.14400 38112 ft 410 kts 331°
2026-05-04 15:46 40.73328 20.10691 38105 ft 411 kts 330°
2026-05-04 15:46 40.78263 20.06993 38114 ft 410 kts 330°
2026-05-04 15:47 40.83231 20.03271 38116 ft 410 kts 331°
2026-05-04 15:47 40.88201 19.99557 38120 ft 411 kts 330°
2026-05-04 15:48 40.93182 19.95809 38118 ft 411 kts 330°
2026-05-04 15:48 41.00642 19.90182 38120 ft 411 kts 330°
2026-05-04 15:49 41.05588 19.86451 38120 ft 412 kts 330°
2026-05-04 15:49 41.10566 19.82689 38124 ft 411 kts 330°
2026-05-04 15:50 41.15546 19.78922 38114 ft 411 kts 330°
2026-05-04 15:50 41.20514 19.75145 38132 ft 411 kts 330°
2026-05-04 15:51 41.25460 19.71386 38141 ft 411 kts 330°
2026-05-04 15:51 41.30433 19.67609 38132 ft 412 kts 330°
2026-05-04 15:52 41.35413 19.63806 38131 ft 412 kts 330°
2026-05-04 15:52 41.40381 19.60001 38128 ft 412 kts 330°
2026-05-04 15:53 41.45361 19.56187 38124 ft 412 kts 330°
2026-05-04 15:53 41.50222 19.52464 38121 ft 412 kts 330°
2026-05-04 15:54 41.55100 19.48713 38126 ft 412 kts 330°
2026-05-04 15:54 41.59764 19.45118 38109 ft 413 kts 330°
2026-05-04 15:55 41.64704 19.41309 38116 ft 414 kts 330°
2026-05-04 15:55 41.69635 19.37504 38114 ft 414 kts 330°
2026-05-04 15:56 41.73770 19.34302 38121 ft 414 kts 330°
2026-05-04 15:56 41.79533 19.29738 38122 ft 414 kts 327°
2026-05-04 15:57 41.83564 19.26180 38112 ft 414 kts 326°
2026-05-04 15:57 41.88298 19.21822 38115 ft 415 kts 326°
2026-05-04 15:58 41.93082 19.17460 38118 ft 415 kts 326°
2026-05-04 15:58 41.97875 19.13150 38113 ft 415 kts 326°
2026-05-04 15:59 42.02649 19.08859 38123 ft 414 kts 326°
2026-05-04 15:59 42.07435 19.04546 38127 ft 413 kts 326°
2026-05-04 16:00 42.12210 19.00229 38127 ft 413 kts 326°
2026-05-04 16:00 42.16979 18.95914 38138 ft 413 kts 326°
2026-05-04 16:01 42.21743 18.91594 38128 ft 412 kts 326°
2026-05-04 16:01 42.26474 18.87294 38122 ft 412 kts 326°
2026-05-04 16:02 42.31243 18.82949 38127 ft 413 kts 326°
2026-05-04 16:03 42.38403 18.76405 38128 ft 414 kts 326°
2026-05-04 16:03 42.43151 18.72070 38147 ft 414 kts 326°
2026-05-04 16:04 42.47921 18.67706 38152 ft 414 kts 326°
2026-05-04 16:04 42.55068 18.61127 38150 ft 414 kts 326°
2026-05-04 16:05 42.59831 18.56739 38147 ft 414 kts 326°
2026-05-04 16:06 42.66974 18.50148 38143 ft 414 kts 326°
2026-05-04 16:07 42.76482 18.41341 38131 ft 414 kts 325°
2026-05-04 16:08 42.86010 18.32480 38135 ft 414 kts 325°
2026-05-04 16:09 42.97886 18.21396 38129 ft 414 kts 325°
2026-05-04 16:10 43.07411 18.12473 38119 ft 415 kts 325°
2026-05-04 16:11 43.16902 18.03522 38103 ft 415 kts 325°
2026-05-04 16:12 43.31207 17.90014 38096 ft 416 kts 325°
2026-05-04 16:13 43.40713 17.80984 38108 ft 417 kts 325°
2026-05-04 16:14 43.50232 17.71876 38095 ft 416 kts 325°
2026-05-04 16:16 43.61842 17.60050 38109 ft 416 kts 320°
2026-05-04 16:17 43.72973 17.47241 38102 ft 417 kts 321°
2026-05-04 16:18 43.81941 17.37129 38094 ft 417 kts 320°
2026-05-04 16:19 43.93172 17.24376 38098 ft 418 kts 320°
2026-05-04 16:20 44.04397 17.11555 38091 ft 418 kts 320°
2026-05-04 16:22 44.15618 16.98676 38105 ft 419 kts 320°
2026-05-04 16:23 44.29080 16.83125 38097 ft 419 kts 319°
2026-05-04 16:25 44.43383 16.69060 38093 ft 420 kts 323°
2026-05-04 16:26 44.60212 16.52678 38093 ft 421 kts 324°
2026-05-04 16:28 44.72211 16.40919 38081 ft 421 kts 323°
2026-05-04 16:29 44.89062 16.24322 38065 ft 422 kts 323°
2026-05-04 16:31 45.01061 16.12408 38067 ft 423 kts 323°
2026-05-04 16:32 45.15523 15.98014 38064 ft 424 kts 322°
2026-05-04 16:33 45.25120 15.88374 38059 ft 424 kts 322°
2026-05-04 16:34 45.32354 15.81101 38054 ft 424 kts 322°
2026-05-04 16:35 45.46818 15.66476 38039 ft 425 kts 322°
2026-05-04 16:36 45.54021 15.59165 38041 ft 426 kts 322°
2026-05-04 16:37 45.61255 15.51788 38041 ft 426 kts 322°
2026-05-04 16:38 45.70893 15.41926 38022 ft 426 kts 322°
2026-05-04 16:39 45.82887 15.29467 38025 ft 426 kts 321°
2026-05-04 16:40 45.92360 15.19342 38030 ft 426 kts 321°
2026-05-04 16:41 46.04259 15.06619 38052 ft 426 kts 321°
2026-05-04 16:43 46.16155 14.93818 38047 ft 427 kts 321°
2026-05-04 16:43 46.23263 14.86148 38067 ft 427 kts 320°
2026-05-04 16:45 46.37441 14.70759 38066 ft 424 kts 321°
2026-05-04 16:46 46.49203 14.57740 38030 ft 425 kts 319°
2026-05-04 16:47 46.57622 14.47824 38012 ft 426 kts 319°
2026-05-04 16:48 46.66873 14.37019 38011 ft 427 kts 319°
2026-05-04 16:49 46.76105 14.26187 38014 ft 428 kts 319°
2026-05-04 16:50 46.85378 14.15234 38017 ft 429 kts 319°
2026-05-04 16:51 46.92305 14.07020 38023 ft 429 kts 319°
2026-05-04 16:52 47.01581 13.95996 38035 ft 429 kts 319°
2026-05-04 16:53 47.08544 13.87691 38028 ft 430 kts 318°
2026-05-04 16:54 47.17788 13.76601 38018 ft 430 kts 318°
2026-05-04 16:55 47.31682 13.59861 37898 ft 431 kts 318°
2026-05-04 16:56 47.36313 13.54251 37320 ft 431 kts 318°
2026-05-04 16:56 47.43253 13.45812 35811 ft 435 kts 318°
2026-05-04 16:57 47.45598 13.42954 35061 ft 439 kts 318°
2026-05-04 16:57 47.50357 13.37140 33365 ft 448 kts 318°
2026-05-04 16:58 47.57687 13.28262 30560 ft 459 kts 318°
2026-05-04 16:58 47.60175 13.25251 29595 ft 462 kts 318°
2026-05-04 16:59 47.65068 13.19319 28386 ft 448 kts 318°
2026-05-04 17:00 47.74473 13.07844 25836 ft 430 kts 318°
2026-05-04 17:00 47.81304 12.99452 23984 ft 419 kts 318°
2026-05-04 17:01 47.85771 12.93948 22747 ft 410 kts 318°
2026-05-04 17:01 47.90100 12.88618 21673 ft 400 kts 318°
2026-05-04 17:02 47.94297 12.83378 20634 ft 391 kts 314°
2026-05-04 17:02 47.97515 12.77037 19613 ft 379 kts 298°
2026-05-04 17:03 47.98849 12.73659 19111 ft 376 kts 298°
2026-05-04 17:03 48.00177 12.70309 18584 ft 374 kts 298°
2026-05-04 17:03 48.02685 12.63615 17749 ft 358 kts 292°
2026-05-04 17:04 48.04819 12.56778 16196 ft 365 kts 291°
2026-05-04 17:04 48.06896 12.49921 15078 ft 359 kts 290°
2026-05-04 17:05 48.08947 12.43162 14058 ft 353 kts 290°
2026-05-04 17:05 48.10916 12.36703 13612 ft 338 kts 290°
2026-05-04 17:06 48.12847 12.30352 12598 ft 333 kts 290°
2026-05-04 17:06 48.13806 12.27191 12102 ft 331 kts 290°
2026-05-04 17:07 48.15691 12.20954 11169 ft 327 kts 290°
2026-05-04 17:07 48.16320 12.18868 10974 ft 323 kts 290°
2026-05-04 17:07 48.17549 12.14781 10922 ft 326 kts 290°
2026-05-04 17:07 48.18482 12.11675 10931 ft 327 kts 290°
2026-05-04 17:08 48.19417 12.08567 10934 ft 327 kts 290°
2026-05-04 17:08 48.21288 12.02344 10942 ft 328 kts 291°
2026-05-04 17:08 48.22222 11.99224 10941 ft 329 kts 291°
2026-05-04 17:09 48.23157 11.96097 10942 ft 329 kts 291°
2026-05-04 17:09 48.24092 11.92962 10944 ft 329 kts 290°
2026-05-04 17:09 48.24892 11.89783 10727 ft 323 kts 284°
2026-05-04 17:10 48.25674 11.83322 10235 ft 303 kts 270°
2026-05-04 17:10 48.25295 11.74376 9636 ft 278 kts 261°
2026-05-04 17:11 48.25074 11.71494 9280 ft 278 kts 261°
2026-05-04 17:11 48.24853 11.68619 8921 ft 277 kts 261°
2026-05-04 17:11 48.24406 11.62891 8215 ft 276 kts 261°
2026-05-04 17:12 48.24181 11.60036 7898 ft 275 kts 261°
2026-05-04 17:12 48.23735 11.54363 7210 ft 274 kts 261°
2026-05-04 17:13 48.23056 11.45882 6177 ft 274 kts 262°
2026-05-04 17:14 48.25073 11.38506 5133 ft 275 kts 334°
2026-05-04 17:14 48.26899 11.37742 4814 ft 273 kts 353°
2026-05-04 17:14 48.30327 11.39346 4185 ft 264 kts 46°
2026-05-04 17:15 48.31315 11.41623 3995 ft 261 kts 71°
2026-05-04 17:15 48.31841 11.46721 4000 ft 232 kts 84°
2026-05-04 17:16 48.32197 11.51397 4011 ft 221 kts 83°
2026-05-04 17:16 48.32731 11.58110 3709 ft 213 kts 83°
2026-05-04 17:17 48.32906 11.60313 3452 ft 211 kts 83°
2026-05-04 17:17 48.33388 11.66435 2690 ft 172 kts 83°
2026-05-04 17:18 48.33519 11.68107 2478 ft 153 kts 82°
2026-05-04 17:18 48.33753 11.71112 2061 ft 140 kts 82°
2026-05-04 17:19 48.33980 11.74002 1688 ft 139 kts 81°
2026-05-04 17:19 48.34192 11.76712 1475 ft 102 kts 83°
2026-05-04 17:20 48.34288 11.77963 1485 ft 38 kts 83°
2026-05-04 17:20 48.34436 11.78471 1478 ft 24 kts 54°
2026-05-04 17:20 48.34520 11.78642 1471 ft 18 kts 54°
2026-05-04 17:21 48.34636 11.78962 1485 ft 19 kts 83°
2026-05-04 17:21 48.34670 11.79402 1485 ft 23 kts 83°
2026-05-04 17:22 48.34684 11.79565 1476 ft 13 kts 84°
2026-05-04 17:22 48.34697 11.79684 1475 ft 9 kts 62°
2026-05-04 17:23 48.34906 11.79685 1479 ft 5 kts 353°
2026-05-04 17:23 48.34916 11.79683 1486 ft 0 kts 353°
2026-05-04 17:23 48.34918 11.79683 1486 ft 0 kts 353°
2026-05-04 17:25 48.34928 11.79681 1473 ft 3 kts 353°
2026-05-04 17:25 48.35014 11.79667 1485 ft 9 kts 354°
2026-05-04 17:26 48.35079 11.79805 1485 ft 12 kts 84°
2026-05-04 17:26 48.35118 11.80213 1475 ft 8 kts 53°
2026-05-04 17:27 48.35266 11.80208 1473 ft 14 kts 353°
2026-05-04 17:27 48.35416 11.80168 1473 ft 9 kts 336°
2026-05-04 17:28 48.35427 11.80074 1476 ft 3 kts 262°
2026-05-04 17:29 48.35423 11.80022 1481 ft 0 kts 263°